Regional Weather Roundup
Issued by NWS Sioux Falls, SD

Home | Current Version | Previous Version | Graphics & Text | Print | Product List | Glossary On
Versions: 1 2 3 4 5 6 7 8 9 10 11 12 13 14 15 16 17 18 19 20 21 22 23 24 25 26 27 28 29 30 31 32 33 34 35 36 37 38 39 40 41 42 43 44 45 46 47 48 49 50
000
ASUS43 KFSD 161902
RWRFSD

WEATHER ROUNDUP FOR SE SOUTH DAKOTA/SW MINNESOTA/NW IOWA
NATIONAL WEATHER SERVICE SIOUX FALLS SD
100 PM CST SAT DEC 16 2017

NOTE: "FAIR" INDICATES FEW OR NO CLOUDS BELOW 12,000 FEET WITH NO
SIGNIFICANT WEATHER AND OR OBSTRUCTIONS TO VISIBILITY.


SDZ038>040-050-052>070-162000-
SOUTHEAST SOUTH DAKOTA

CITY           SKY/WX    TMP DP  RH WIND       PRES   REMARKS
BROOKINGS      MOSUNNY   40  32  73 N20       29.85F
CHAMBERLAIN    CLOUDY    42  36  78 W3        29.93F
HURON          CLOUDY    41  35  79 N18       29.90F
MADISON        FAIR      39  36  87 N17       29.87R
MITCHELL       CLOUDY    43  35  73 N10       29.92R
SIOUX FALLS    CLOUDY    46  33  60 N13       29.88R
WINNER         MOCLDY    42  33  70 N15       29.92F
YANKTON        CLOUDY    42  31  64 NW12      29.88S
$$

MNZ071-072-080-081-089-090-097-098-162000-
SOUTHWEST MINNESOTA

CITY           SKY/WX    TMP DP  RH WIND       PRES   REMARKS
FAIRMONT       SUNNY     42  30  62 N13       29.84S
JACKSON        MOSUNNY   43  30  61 N12G17    29.84R
LUVERNE        MOSUNNY   41  30  65 N8        29.86S
MARSHALL       MOSUNNY   40  31  70 N16       29.87R
MONTEVIDEO     CLOUDY    39  32  75 N6        29.90R
PIPESTONE      CLOUDY    43  30  61 N8        29.84S
REDWOOD FALLS  CLOUDY    38  30  73 N8        29.88R
WINDOM           N/A     41  25  52 NW10G16   29.85S
WORTHINGTON    CLOUDY    42  30  62 N13       29.85R
$$

IAZ001>003-012>014-020>022-031-032-NEZ013-014-SDZ071-162000-
NORTHWEST IOWA

CITY           SKY/WX    TMP DP  RH WIND       PRES   REMARKS
CHEROKEE       MOSUNNY   45  29  54 N6        29.85R
ESTHERVILLE    MOSUNNY   44  31  60 N10       29.83S
LE MARS        MOSUNNY   45  30  57 N8G14     29.85F
ORANGE CITY    MOSUNNY   45  30  57 N8        29.85S
SHELDON        CLOUDY    41  30  65 NW9       29.84S
SIOUX CITY     MOSUNNY   47  30  51 NW8       29.87R
SPENCER        MOSUNNY   44  29  55 N10       29.84S
STORM LAKE     PTSUNNY   48  28  46 N7G13     29.84R
$$

ABBREVIATIONS USED IN REMARKS
   TC - TEMPERATURE IN CELSIUS
  WCI - WIND CHILL INDEX
   HX - HEAT INDEX
  VSB - VISIBILITY





USA.gov is the U.S. government's official web portal to all federal, state and local government web resources and services.